BEIDOU-3 M22

Last updated on Wed Aug 26 2026 00:03:36 GMT+0000 (Coordinated Universal Time)

1 44793U 19078A 26237.35040745 -.00000025 00000+0 00000+0 0 9996 2 44793 53.8696 297.3897 0004986 45.1793 314.9424 1.86227626 45935
UTC large
Height (km)
Speed (km/s)
/
Latitude / Longitude
Inclination (degrees)
Orbital Period (minutes)
Azimuth
Elevation
Range (km)
Doppler Factor

Next 0 passes for location: London (51.5072 / 0.1276)

No passes found over London.
BEIDOU-3 M22